Salisbury, MD

10:35 AM EDT on August 23, 2017 (GMT -0400)
Salisbury-Ocean City Wicomico Regional

Weather History for KSBY - April, 2013

Change the Weather History Date:

Friday, April 19, 2013

  Actual Average Record
Temperature  
Mean Temperature 73 °F 55 °F  
Max Temperature 83 °F 66 °F 90 °F (1985)
Min Temperature 62 °F 44 °F 29 °F (2001)
Degree Days  
Heating Degree Days 0 11  
Month to date heating degree days 155 247  
Since 1 July heating degree days 3630 4182  
Cooling Degree Days 8 1  
Month to date cooling degree days 46 6  
Year to date cooling degree days 46 8  
Growing Degree Days 22 (Base 50)    
Moisture  
Dew Point 62 °F    
Average Humidity 71    
Maximum Humidity 87    
Minimum Humidity 54    
Precipitation  
Precipitation 0.30 in 0.11 in 1.63 in (1943)
Month to date precipitation 1.84 2.39  
Year to date precipitation 13.39 13.77  
Snow  
Snow 0.00 in 0.00 in 0.00 in ()
Month to date snowfall 0.0 0.2  
Since 1 July snowfall 2.8 9.3  
Snow Depth 0.00 in    
Sea Level Pressure  
Sea Level Pressure 29.88 in    
Wind  
Wind Speed 14 mph (South)    
Max Wind Speed 28 mph    
Max Gust Speed 35 mph    
Visibility 9 miles    
Events Rain    
T = Trace of Precipitation, MM = Missing Value Source: NWS Daily Summary

Daily Weather History Graph

Daily Weather History Graph

Search for Another Location

Airport or City:

Trip Planner

Search our weather history database for the weather conditions in past years. The results will help you decide how hot, cold, wet, or windy it might be!

Date:

Astronomy

Apr. 19, 2013 Rise Set
Actual Time 6:20 AM EDT 7:42 PM EDT
Civil Twilight 5:52 AM EDT 8:10 PM EDT
Nautical Twilight 5:19 AM EDT 8:43 PM EDT
Astronomical Twilight 4:45 AM EDT 9:18 PM EDT
Moon 1:29 PM EDT (4/19) 2:29 AM EDT (4/19)
Length of Visible Light 14h 17m
Length of Day
13h 22m
First Quarter, 61% of the Moon is Illuminated
Apr 19
First Quarter
Apr 25
Full
May 2
Last Quarter
May 9
New
May 18
First Quarter

Hourly Weather History & Observations

Time (EDT) Temp. Heat Index Dew Point Humidity Pressure Visibility Wind Dir Wind Speed Gust Speed Precip Events Conditions
12:54 AM 63.0 °F - 57.0 °F 81% 30.08 in 10.0 mi South 8.1 mph - N/A   Clear
1:54 AM 63.0 °F - 57.0 °F 81% 30.05 in 10.0 mi South 8.1 mph - N/A   Clear
2:54 AM 63.0 °F - 57.9 °F 84% 30.02 in 10.0 mi SSE 6.9 mph - N/A   Clear
3:54 AM 63.0 °F - 57.9 °F 84% 30.01 in 10.0 mi SSE 6.9 mph - N/A   Clear
4:54 AM 62.1 °F - 57.9 °F 86% 29.99 in 10.0 mi SSE 8.1 mph - N/A   Clear
5:54 AM 63.0 °F - 57.9 °F 84% 29.98 in 10.0 mi SSE 8.1 mph - N/A   Clear
6:54 AM 64.0 °F - 59.0 °F 84% 29.99 in 10.0 mi South 9.2 mph - N/A   Partly Cloudy
7:54 AM 66.9 °F - 61.0 °F 81% 29.98 in 10.0 mi South 11.5 mph - N/A   Mostly Cloudy
8:54 AM 71.1 °F - 63.0 °F 75% 29.96 in 10.0 mi South 12.7 mph 20.7 mph N/A   Overcast
9:15 AM 71.6 °F - 62.6 °F 73% 29.95 in 10.0 mi South 11.5 mph - N/A   Overcast
9:54 AM 71.1 °F - 63.0 °F 75% 29.96 in 10.0 mi South 11.5 mph 20.7 mph 0.00 in   Overcast
10:13 AM 69.8 °F - 64.4 °F 83% 29.95 in 4.0 mi South 12.7 mph 19.6 mph 0.00 in Rain Light Rain
10:25 AM 71.6 °F - 64.4 °F 78% 29.94 in 4.0 mi South 12.7 mph - 0.00 in   Haze
10:54 AM 73.9 °F - 64.0 °F 71% 29.93 in 10.0 mi South 13.8 mph 20.7 mph 0.00 in   Overcast
11:54 AM 79.0 °F - 64.0 °F 60% 29.91 in 10.0 mi South 17.3 mph 26.5 mph N/A   Overcast
12:54 PM 80.1 °F 81.5 °F 63.0 °F 56% 29.88 in 10.0 mi SSW 21.9 mph 28.8 mph N/A   Scattered Clouds
1:54 PM 81.0 °F 82.2 °F 63.0 °F 54% 29.85 in 10.0 mi SSE 15.0 mph 32.2 mph N/A   Mostly Cloudy
2:54 PM 81.0 °F 82.2 °F 63.0 °F 54% 29.81 in 10.0 mi South 19.6 mph 27.6 mph N/A   Mostly Cloudy
3:54 PM 82.0 °F 83.4 °F 64.0 °F 54% 29.78 in 10.0 mi South 18.4 mph 28.8 mph N/A   Clear
4:54 PM 75.9 °F - 64.0 °F 67% 29.77 in 10.0 mi South 18.4 mph 29.9 mph N/A   Clear
5:54 PM 75.0 °F - 64.9 °F 71% 29.75 in 10.0 mi South 20.7 mph 26.5 mph N/A   Clear
6:54 PM 75.0 °F - 64.9 °F 71% 29.73 in 10.0 mi South 20.7 mph 28.8 mph N/A   Clear
7:54 PM 73.9 °F - 64.9 °F 73% 29.73 in 10.0 mi South 16.1 mph 28.8 mph N/A   Clear
8:54 PM 73.9 °F - 64.9 °F 73% 29.75 in 10.0 mi South 18.4 mph 25.3 mph N/A   Clear
9:37 PM 73.4 °F - 64.4 °F 73% 29.78 in 1.8 mi WSW 18.4 mph 25.3 mph 0.14 in Rain Heavy Rain
9:44 PM 71.6 °F - 64.4 °F 78% 29.78 in 2.0 mi SW 12.7 mph 32.2 mph 0.14 in Rain Light Rain
9:52 PM 71.6 °F - 64.4 °F 78% 29.78 in 10.0 mi SW 13.8 mph 25.3 mph 0.15 in Rain Light Rain
9:54 PM 71.1 °F - 64.9 °F 81% 29.80 in 10.0 mi SSW 16.1 mph 25.3 mph 0.15 in Rain Light Rain
10:54 PM 68.0 °F - 62.1 °F 81% 29.79 in 6.0 mi SSW 16.1 mph 23.0 mph 0.07 in Rain Light Rain
11:54 PM 66.9 °F - 63.0 °F 87% 29.78 in 6.0 mi South 11.5 mph - 0.04 in Rain Light Rain